This is the latest recevied weather packets stored in our database for station/object KC8ZBC. If no packets are shown the sender has not sent any weather packets the latest 10 day(s).
| Time | Temp. | Humidity | Pressure | Rain* | Wind** | Luminosity | Snow |
|---|---|---|---|---|---|---|---|
| 1778065576 | 4.44° C | 77% | 985 hPa | 0 mm | - | 10 W/m² | - |
| 1778065274 | 5° C | 75% | 985.1 hPa | 0 mm | - | 10 W/m² | - |
| 1778064970 | 5° C | 75% | 984.8 hPa | 0 mm | - | 11 W/m² | - |
| 1778064667 | 4.44° C | 74% | 984.9 hPa | 0 mm | - | 11 W/m² | - |
| 1778064365 | 5° C | 75% | 984.9 hPa | 0 mm | - | 7 W/m² | - |
| 1778064062 | 5° C | 74% | 984.9 hPa | 0 mm | - | 4 W/m² | - |
| 1778063760 | 5° C | 74% | 984.9 hPa | 0 mm | - | 1 W/m² | - |
| 1778063456 | 5° C | 74% | 984.8 hPa | 0 mm | - | 0 W/m² | - |
| 1778063155 | 5° C | 73% | 984.7 hPa | 0 mm | - | 0 W/m² | - |
| 1778062852 | 5° C | 73% | 984.7 hPa | 0 mm | - | 0 W/m² | - |
| 1778062548 | 5.56° C | 73% | 984.8 hPa | 0 mm | - | 0 W/m² | - |
| 1778062245 | 5.56° C | 74% | 984.7 hPa | 0 mm | - | 0 W/m² | - |
| 1778061944 | 5.56° C | 77% | 984.6 hPa | 0 mm | - | 0 W/m² | - |
| 1778061641 | 5.56° C | 79% | 984.4 hPa | 0 mm | - | 0 W/m² | - |
| 1778061340 | 5.56° C | 80% | 984.3 hPa | 0 mm | - | 0 W/m² | - |
| 1778061036 | 6.11° C | 81% | 983.9 hPa | 0 mm | - | 0 W/m² | - |
| 1778060734 | 6.11° C | 82% | 983.8 hPa | 0 mm | - | 0 W/m² | - |
| 1778060431 | 6.11° C | 83% | 984.1 hPa | 0 mm | - | 0 W/m² | - |
| 1778060130 | 6.11° C | 83% | 984.1 hPa | 0 mm | - | 0 W/m² | - |
| 1778059827 | 6.11° C | 83% | 984 hPa | 0 mm | - | 0 W/m² | - |
| 1778059525 | 6.11° C | 83% | 984.1 hPa | 0 mm | - | 0 W/m² | - |
| 1778059221 | 6.11° C | 83% | 984 hPa | 0 mm | - | 0 W/m² | - |
| 1778058920 | 6.11° C | 83% | 984 hPa | 0 mm | - | 0 W/m² | - |
| 1778058616 | 6.11° C | 83% | 984.1 hPa | 0 mm | - | 0 W/m² | - |
| 1778058314 | 6.11° C | 82% | 984 hPa | 0 mm | - | 0 W/m² | - |
* Rain latest hour (hover to see other rain measurements)
** Current wind speed in m/s (hover to see current wind gust speed)